| time (UTC) | temp F | wind direction | speed MPH | gust MPH | rain 1hr in | rain 24hr in | rain mn in | humidity % | barometer mb |
| 20260905223528 | 77 | 13 | 1.0 | 9.0 | 0.00 | 0.00 | 0.00 | 34 | 1015.0 |
| 20260905223050 | 77 | 321 | 3.0 | 9.0 | 0.00 | 0.00 | 0.00 | 34 | 1015.0 |
| 20260905222530 | 77 | 21 | 4.0 | 8.0 | 0.00 | 0.00 | 0.00 | 33 | 1014.9 |
| 20260905222029 | 76 | 0 | 2.0 | 7.0 | 0.00 | 0.00 | 0.00 | 35 | 1015.0 |
| 20260905221550 | 75 | 12 | 1.0 | 8.0 | 0.00 | 0.00 | 0.00 | 37 | 1015.0 |
| 20260905221029 | 76 | 30 | 3.0 | 8.0 | 0.00 | 0.00 | 0.00 | 35 | 1015.2 |
| 20260905220527 | 76 | 315 | 2.0 | 6.0 | 0.00 | 0.00 | 0.00 | 35 | 1015.2 |
| 20260905220056 | 76 | 14 | 2.0 | 6.0 | 0.00 | 0.00 | 0.00 | 32 | 1015.3 |
| 20260905215530 | 76 | 0 | 0.0 | 3.0 | 0.00 | 0.00 | 0.00 | 32 | 1015.3 |
| 20260905215028 | 75 | 327 | 0.0 | 7.0 | 0.00 | 0.00 | 0.00 | 33 | 1015.4 |
| 20260905214555 | 74 | 344 | 0.0 | 7.0 | 0.00 | 0.00 | 0.00 | 32 | 1015.4 |
| 20260905214026 | 73 | 0 | 1.0 | 4.0 | 0.00 | 0.00 | 0.00 | 31 | 1015.5 |
| 20260905213530 | 73 | 140 | 1.0 | 8.0 | 0.00 | 0.00 | 0.00 | 33 | 1015.5 |
| 20260905213050 | 73 | 9 | 1.0 | 8.0 | 0.00 | 0.00 | 0.00 | 31 | 1015.6 |
| 20260905212535 | 73 | 348 | 3.0 | 8.0 | 0.00 | 0.00 | 0.00 | 30 | 1015.5 |
| 20260905212029 | 73 | 360 | 1.0 | 6.0 | 0.00 | 0.00 | 0.00 | 32 | 1015.5 |
| 20260905211548 | 73 | 329 | 1.0 | 7.0 | 0.00 | 0.00 | 0.00 | 33 | 1015.5 |
| 20260905211032 | 73 | 48 | 3.0 | 7.0 | 0.00 | 0.00 | 0.00 | 34 | 1015.6 |
| 20260905210530 | 72 | 344 | 2.0 | 7.0 | 0.00 | 0.00 | 0.00 | 36 | 1015.5 |
| 20260905210058 | 72 | 325 | 1.0 | 8.0 | 0.00 | 0.00 | 0.00 | 37 | 1015.6 |
| 20260905205529 | 72 | 338 | 2.0 | 8.0 | 0.00 | 0.00 | 0.00 | 37 | 1015.6 |
| 20260905205029 | 72 | 5 | 1.0 | 4.0 | 0.00 | 0.00 | 0.00 | 37 | 1015.6 |
| 20260905204546 | 71 | 328 | 0.0 | 4.0 | 0.00 | 0.00 | 0.00 | 41 | 1015.6 |
| 20260905204027 | 71 | 0 | 0.0 | 7.0 | 0.00 | 0.00 | 0.00 | 41 | 1015.7 |
| 20260905203527 | 71 | 332 | 2.0 | 7.0 | 0.00 | 0.00 | 0.00 | 40 | 1015.7 |
| 20260905203043 | 71 | 332 | 2.0 | 6.0 | 0.00 | 0.00 | 0.00 | 42 | 1015.6 |
| 20260905202527 | 70 | 5 | 3.0 | 8.0 | 0.00 | 0.00 | 0.00 | 44 | 1015.7 |
| 20260905202027 | 70 | 26 | 3.0 | 8.0 | 0.00 | 0.00 | 0.00 | 45 | 1015.6 |
| 20260905201552 | 70 | 28 | 1.0 | 5.0 | 0.00 | 0.00 | 0.00 | 46 | 1015.6 |
| 20260905201028 | 70 | 360 | 1.0 | 4.0 | 0.00 | 0.00 | 0.00 | 45 | 1015.6 |
| 20260905200529 | 70 | 101 | 0.0 | 5.0 | 0.00 | 0.00 | 0.00 | 47 | 1015.6 |
| 20260905200049 | 70 | 340 | 0.0 | 8.0 | 0.00 | 0.00 | 0.00 | 46 | 1015.6 |
| 20260905195528 | 70 | 345 | 3.0 | 8.0 | 0.00 | 0.00 | 0.00 | 45 | 1015.6 |
| 20260905195030 | 71 | 5 | 2.0 | 7.0 | 0.00 | 0.00 | 0.00 | 45 | 1015.6 |
| 20260905194548 | 72 | 0 | 1.0 | 8.0 | 0.00 | 0.00 | 0.00 | 44 | 1015.7 |
| 20260905194029 | 72 | 9 | 3.0 | 8.0 | 0.00 | 0.00 | 0.00 | 44 | 1015.6 |
| 20260905193528 | 72 | 315 | 4.0 | 8.0 | 0.00 | 0.00 | 0.00 | 45 | 1015.6 |
| 20260905193042 | 72 | 40 | 1.0 | 6.0 | 0.00 | 0.00 | 0.00 | 47 | 1015.5 |
| 20260905192530 | 71 | 0 | 0.0 | 7.0 | 0.00 | 0.00 | 0.00 | 49 | 1015.6 |
| 20260905192029 | 71 | 107 | 1.0 | 11.0 | 0.00 | 0.00 | 0.00 | 48 | 1015.7 |
| 20260905191548 | 71 | 331 | 5.0 | 11.0 | 0.00 | 0.00 | 0.00 | 48 | 1015.8 |
| 20260905191029 | 70 | 328 | 0.0 | 8.0 | 0.00 | 0.00 | 0.00 | 50 | 1015.6 |
| 20260905190531 | 70 | 55 | 2.0 | 9.0 | 0.00 | 0.00 | 0.00 | 49 | 1015.6 |
| 20260905190048 | 71 | 36 | 2.0 | 9.0 | 0.00 | 0.00 | 0.00 | 49 | 1015.8 |
| 20260905185531 | 72 | 42 | 4.0 | 10.0 | 0.00 | 0.00 | 0.00 | 47 | 1015.7 |
| 20260905185033 | 73 | 327 | 2.0 | 10.0 | 0.00 | 0.00 | 0.00 | 45 | 1015.6 |
| 20260905184556 | 74 | 352 | 2.0 | 6.0 | 0.00 | 0.00 | 0.00 | 45 | 1015.6 |
| 20260905184031 | 73 | 5 | 3.0 | 8.0 | 0.00 | 0.00 | 0.00 | 46 | 1015.5 |
| 20260905183531 | 73 | 308 | 2.0 | 8.0 | 0.00 | 0.00 | 0.00 | 44 | 1015.5 |
| 20260905183051 | 73 | 24 | 0.0 | 8.0 | 0.00 | 0.00 | 0.00 | 43 | 1015.5 |
| 20260905182531 | 72 | 331 | 1.0 | 8.0 | 0.00 | 0.00 | 0.00 | 39 | 1015.5 |
| 20260905182031 | 72 | 346 | 1.0 | 6.0 | 0.00 | 0.00 | 0.00 | 38 | 1015.4 |
| 20260905181553 | 72 | 309 | 1.0 | 6.0 | 0.00 | 0.00 | 0.00 | 40 | 1015.5 |
| 20260905181031 | 71 | 5 | 2.0 | 5.0 | 0.00 | 0.00 | 0.00 | 43 | 1015.4 |
| 20260905180530 | 71 | 317 | 0.0 | 7.0 | 0.00 | 0.00 | 0.00 | 44 | 1015.4 |
| 20260905180058 | 70 | 0 | 1.0 | 7.0 | 0.00 | 0.00 | 0.00 | 46 | 1015.4 |
| 20260905175532 | 70 | 10 | 1.0 | 6.0 | 0.00 | 0.00 | 0.00 | 45 | 1015.4 |
| 20260905175031 | 70 | 330 | 0.0 | 5.0 | 0.00 | 0.00 | 0.00 | 46 | 1015.3 |
| 20260905174553 | 69 | 12 | 0.0 | 5.0 | 0.00 | 0.00 | 0.00 | 48 | 1015.3 |
| 20260905174030 | 69 | 311 | 1.0 | 6.0 | 0.00 | 0.00 | 0.00 | 47 | 1015.3 |
| 20260905173531 | 69 | 0 | 1.0 | 6.0 | 0.00 | 0.00 | 0.00 | 48 | 1015.3 |
| 20260905173106 | 68 | 0 | 1.0 | 5.0 | 0.00 | 0.00 | 0.00 | 48 | 1015.3 |
| 20260905172531 | 68 | 288 | 0.0 | 5.0 | 0.00 | 0.00 | 0.00 | 50 | 1015.3 |
| 20260905172032 | 67 | 333 | 1.0 | 5.0 | 0.00 | 0.00 | 0.00 | 52 | 1015.2 |
| 20260905171549 | 67 | 17 | 1.0 | 6.0 | 0.00 | 0.00 | 0.00 | 54 | 1015.3 |
| 20260905171031 | 66 | 11 | 2.0 | 6.0 | 0.00 | 0.00 | 0.00 | 53 | 1015.2 |
| 20260905170531 | 66 | 347 | 1.0 | 5.0 | 0.00 | 0.00 | 0.00 | 53 | 1015.2 |
| 20260905170100 | 66 | 330 | 2.0 | 5.0 | 0.00 | 0.00 | 0.00 | 51 | 1015.1 |
| 20260905165531 | 66 | 33 | 1.0 | 6.0 | 0.00 | 0.00 | 0.00 | 53 | 1015.1 |
| 20260905165031 | 65 | 340 | 1.0 | 6.0 | 0.00 | 0.00 | 0.00 | 56 | 1015.2 |
| 20260905164544 | 65 | 342 | 1.0 | 4.0 | 0.00 | 0.00 | 0.00 | 55 | 1015.1 |
| 20260905164030 | 65 | 0 | 0.0 | 3.0 | 0.00 | 0.00 | 0.00 | 58 | 1015.0 |
| 20260905163535 | 64 | 332 | 1.0 | 4.0 | 0.00 | 0.00 | 0.00 | 60 | 1015.0 |
| 20260905163050 | 64 | 9 | 0.0 | 4.0 | 0.00 | 0.00 | 0.00 | 62 | 1015.1 |
| 20260905162532 | 64 | 0 | 1.0 | 4.0 | 0.00 | 0.00 | 0.00 | 60 | 1015.1 |
| 20260905162031 | 64 | 0 | 0.0 | 4.0 | 0.00 | 0.00 | 0.00 | 60 | 1015.0 |
| 20260905161602 | 63 | 0 | 0.0 | 4.0 | 0.00 | 0.00 | 0.00 | 62 | 1015.1 |
| 20260905161032 | 63 | 0 | 1.0 | 4.0 | 0.00 | 0.00 | 0.00 | 62 | 1015.1 |
| 20260905160531 | 63 | 333 | 0.0 | 3.0 | 0.00 | 0.00 | 0.00 | 64 | 1015.0 |
| 20260905160045 | 62 | 352 | 0.0 | 2.0 | 0.00 | 0.00 | 0.00 | 64 | 1015.1 |
| 20260905155534 | 62 | 337 | 0.0 | 2.0 | 0.00 | 0.02 | 0.00 | 65 | 1015.1 |
| 20260905155030 | 62 | 0 | 0.0 | 2.0 | 0.00 | 0.02 | 0.00 | 66 | 1015.1 |
| 20260905154555 | 61 | 240 | 0.0 | 2.0 | 0.00 | 0.02 | 0.00 | 66 | 1015.1 |
| 20260905154033 | 61 | 0 | 0.0 | 2.0 | 0.00 | 0.02 | 0.00 | 66 | 1015.0 |
| 20260905153528 | 60 | 294 | 0.0 | 2.0 | 0.00 | 0.02 | 0.00 | 68 | 1015.0 |
| 20260905153047 | 60 | 0 | 0.0 | 2.0 | 0.00 | 0.02 | 0.00 | 69 | 1015.1 |
| 20260905152531 | 59 | 0 | 0.0 | 1.0 | 0.00 | 0.02 | 0.00 | 69 | 1015.1 |
| 20260905152033 | 59 | 0 | 0.0 | 1.0 | 0.00 | 0.02 | 0.00 | 71 | 1015.1 |
| 20260905151547 | 58 | 0 | 0.0 | 1.0 | 0.00 | 0.02 | 0.00 | 71 | 1015.0 |
| 20260905151030 | 58 | 0 | 0.0 | 1.0 | 0.00 | 0.02 | 0.00 | 72 | 1015.0 |
| 20260905150534 | 57 | 0 | 0.0 | 1.0 | 0.00 | 0.02 | 0.00 | 72 | 1015.0 |
| 20260905150059 | 57 | 0 | 0.0 | 1.0 | 0.00 | 0.02 | 0.00 | 71 | 1015.0 |
| 20260905145530 | 57 | 0 | 0.0 | 1.0 | 0.00 | 0.06 | 0.00 | 73 | 1014.9 |
| 20260905145031 | 56 | 0 | 0.0 | 2.0 | 0.00 | 0.06 | 0.00 | 74 | 1014.9 |
| 20260905144550 | 56 | 249 | 0.0 | 2.0 | 0.00 | 0.06 | 0.00 | 74 | 1014.9 |
| 20260905144030 | 55 | 0 | 0.0 | 2.0 | 0.00 | 0.06 | 0.00 | 75 | 1014.9 |
| 20260905143529 | 55 | 0 | 0.0 | 1.0 | 0.00 | 0.06 | 0.00 | 75 | 1014.9 |
| 20260905143048 | 55 | 0 | 0.0 | 2.0 | 0.00 | 0.06 | 0.00 | 75 | 1014.9 |
| 20260905142530 | 55 | 0 | 0.0 | 2.0 | 0.00 | 0.06 | 0.00 | 75 | 1014.9 |
| 20260905142032 | 54 | 0 | 0.0 | 2.0 | 0.00 | 0.06 | 0.00 | 75 | 1015.0 |
| 20260905141546 | 53 | 0 | 0.0 | 2.0 | 0.00 | 0.06 | 0.00 | 77 | 1014.9 |
| 20260905141031 | 53 | 0 | 0.0 | 2.0 | 0.00 | 0.06 | 0.00 | 79 | 1014.7 |
| 20260905140531 | 52 | 0 | 0.0 | 2.0 | 0.00 | 0.06 | 0.00 | 80 | 1014.7 |
| 20260905140055 | 51 | 227 | 0.0 | 2.0 | 0.00 | 0.06 | 0.00 | 82 | 1014.7 |
| 20260905135529 | 51 | 0 | 0.0 | 1.0 | 0.00 | 0.06 | 0.00 | 83 | 1014.7 |
| 20260905135028 | 51 | 0 | 0.0 | 1.0 | 0.00 | 0.06 | 0.00 | 83 | 1014.7 |
| 20260905134553 | 51 | 0 | 0.0 | 1.0 | 0.00 | 0.06 | 0.00 | 83 | 1014.7 |
| 20260905134030 | 51 | 231 | 0.0 | 1.0 | 0.00 | 0.06 | 0.00 | 82 | 1014.7 |
| 20260905133530 | 51 | 0 | 0.0 | 1.0 | 0.00 | 0.06 | 0.00 | 82 | 1014.6 |
| 20260905133047 | 51 | 0 | 0.0 | 2.0 | 0.00 | 0.06 | 0.00 | 82 | 1014.6 |
| 20260905132529 | 51 | 238 | 0.0 | 2.0 | 0.00 | 0.06 | 0.00 | 82 | 1014.7 |
| 20260905132031 | 52 | 239 | 0.0 | 1.0 | 0.00 | 0.06 | 0.00 | 81 | 1014.6 |
| 20260905131544 | 52 | 0 | 0.0 | 1.0 | 0.00 | 0.06 | 0.00 | 80 | 1014.6 |
| 20260905131029 | 52 | 0 | 0.0 | 1.0 | 0.00 | 0.06 | 0.00 | 79 | 1014.5 |
| 20260905130530 | 53 | 0 | 0.0 | 0.0 | 0.00 | 0.06 | 0.00 | 78 | 1014.5 |
| 20260905130053 | 53 | 0 | 0.0 | 1.0 | 0.00 | 0.06 | 0.00 | 78 | 1014.6 |
| 20260905125533 | 53 | 0 | 0.0 | 1.0 | 0.00 | 0.07 | 0.00 | 78 | 1014.6 |
| 20260905125032 | 53 | 0 | 0.0 | 3.0 | 0.00 | 0.07 | 0.00 | 77 | 1014.6 |
| 20260905124550 | 53 | 0 | 0.0 | 3.0 | 0.00 | 0.07 | 0.00 | 77 | 1014.5 |
| 20260905124033 | 53 | 237 | 0.0 | 3.0 | 0.00 | 0.07 | 0.00 | 78 | 1014.5 |
| 20260905123531 | 53 | 0 | 0.0 | 3.0 | 0.00 | 0.07 | 0.00 | 79 | 1014.5 |
| 20260905123108 | 53 | 0 | 0.0 | 3.0 | 0.00 | 0.07 | 0.00 | 79 | 1014.5 |
| 20260905122533 | 52 | 0 | 0.0 | 2.0 | 0.00 | 0.07 | 0.00 | 80 | 1014.6 |
| 20260905122032 | 52 | 0 | 0.0 | 2.0 | 0.00 | 0.07 | 0.00 | 81 | 1014.6 |
| 20260905121555 | 52 | 0 | 0.0 | 2.0 | 0.00 | 0.07 | 0.00 | 81 | 1014.5 |
| 20260905121032 | 52 | 230 | 0.0 | 2.0 | 0.00 | 0.07 | 0.00 | 81 | 1014.6 |
| 20260905120532 | 52 | 0 | 0.0 | 2.0 | 0.00 | 0.07 | 0.00 | 82 | 1014.6 |
| 20260905120051 | 52 | 0 | 0.0 | 2.0 | 0.00 | 0.07 | 0.00 | 82 | 1014.6 |
| 20260905115531 | 52 | 0 | 0.0 | 2.0 | 0.00 | 0.09 | 0.00 | 81 | 1014.7 |
| 20260905115031 | 52 | 0 | 0.0 | 1.0 | 0.00 | 0.09 | 0.00 | 81 | 1014.6 |
| 20260905114600 | 52 | 0 | 0.0 | 0.0 | 0.00 | 0.09 | 0.00 | 81 | 1014.5 |
| 20260905114033 | 52 | 0 | 0.0 | 0.0 | 0.00 | 0.09 | 0.00 | 80 | 1014.5 |
| 20260905113531 | 52 | 0 | 0.0 | 0.0 | 0.00 | 0.09 | 0.00 | 79 | 1014.5 |
| 20260905113050 | 53 | 0 | 0.0 | 0.0 | 0.00 | 0.09 | 0.00 | 78 | 1014.5 |
| 20260905112530 | 53 | 0 | 0.0 | 0.0 | 0.00 | 0.09 | 0.00 | 77 | 1014.5 |
| 20260905112033 | 53 | 0 | 0.0 | 0.0 | 0.00 | 0.09 | 0.00 | 78 | 1014.6 |
| 20260905111549 | 53 | 0 | 0.0 | 0.0 | 0.00 | 0.09 | 0.00 | 78 | 1014.7 |
| 20260905111031 | 53 | 0 | 0.0 | 0.0 | 0.00 | 0.09 | 0.00 | 78 | 1014.7 |
| 20260905110529 | 53 | 0 | 0.0 | 0.0 | 0.00 | 0.09 | 0.00 | 77 | 1014.7 |
| 20260905110046 | 54 | 0 | 0.0 | 1.0 | 0.00 | 0.09 | 0.00 | 77 | 1014.7 |
| 20260905105532 | 54 | 0 | 0.0 | 1.0 | 0.00 | 0.09 | 0.00 | 76 | 1014.7 |
| 20260905105032 | 54 | 0 | 0.0 | 0.0 | 0.00 | 0.09 | 0.00 | 75 | 1014.6 |
| 20260905104553 | 55 | 0 | 0.0 | 0.0 | 0.00 | 0.09 | 0.00 | 74 | 1014.7 |
| 20260905104031 | 55 | 0 | 0.0 | 0.0 | 0.00 | 0.09 | 0.00 | 73 | 1014.7 |
| 20260905103533 | 55 | 0 | 0.0 | 1.0 | 0.00 | 0.09 | 0.00 | 73 | 1014.7 |
| 20260905103052 | 55 | 0 | 0.0 | 1.0 | 0.00 | 0.09 | 0.00 | 72 | 1014.8 |
| 20260905102532 | 55 | 0 | 0.0 | 2.0 | 0.00 | 0.09 | 0.00 | 73 | 1014.8 |
| 20260905102034 | 55 | 0 | 0.0 | 2.0 | 0.00 | 0.09 | 0.00 | 74 | 1014.8 |
| 20260905101559 | 55 | 0 | 0.0 | 1.0 | 0.00 | 0.09 | 0.00 | 75 | 1014.9 |
| 20260905101035 | 55 | 0 | 0.0 | 1.0 | 0.00 | 0.09 | 0.00 | 74 | 1014.9 |
| 20260905100531 | 56 | 0 | 0.0 | 0.0 | 0.00 | 0.09 | 0.00 | 74 | 1014.9 |
| 20260905100114 | 56 | 0 | 0.0 | 0.0 | 0.00 | 0.09 | 0.00 | 71 | 1014.9 |
| 20260905095532 | 56 | 0 | 0.0 | 0.0 | 0.00 | 0.11 | 0.00 | 71 | 1014.9 |
| 20260905095032 | 56 | 0 | 0.0 | 0.0 | 0.00 | 0.11 | 0.00 | 71 | 1014.9 |
| 20260905094551 | 57 | 0 | 0.0 | 1.0 | 0.00 | 0.11 | 0.00 | 70 | 1014.9 |
| 20260905094030 | 57 | 0 | 0.0 | 1.0 | 0.00 | 0.11 | 0.00 | 71 | 1014.9 |
| 20260905093532 | 57 | 0 | 0.0 | 2.0 | 0.00 | 0.11 | 0.00 | 69 | 1014.9 |
| 20260905093051 | 57 | 0 | 0.0 | 2.0 | 0.00 | 0.11 | 0.00 | 70 | 1014.9 |
| 20260905092534 | 58 | 232 | 0.0 | 2.0 | 0.00 | 0.11 | 0.00 | 69 | 1014.8 |
| 20260905092034 | 58 | 0 | 0.0 | 3.0 | 0.00 | 0.11 | 0.00 | 69 | 1014.8 |
| 20260905091557 | 58 | 234 | 0.0 | 3.0 | 0.00 | 0.11 | 0.00 | 69 | 1014.8 |
| 20260905091031 | 58 | 230 | 0.0 | 5.0 | 0.00 | 0.11 | 0.00 | 69 | 1014.8 |
| 20260905090531 | 57 | 0 | 0.0 | 5.0 | 0.00 | 0.11 | 0.00 | 70 | 1014.8 |
| 20260905090046 | 57 | 233 | 0.0 | 3.0 | 0.00 | 0.11 | 0.00 | 71 | 1014.9 |
| 20260905085534 | 57 | 0 | 0.0 | 3.0 | 0.00 | 0.14 | 0.00 | 72 | 1014.9 |
| 20260905085030 | 57 | 0 | 0.0 | 2.0 | 0.00 | 0.14 | 0.00 | 72 | 1014.9 |
| 20260905084553 | 57 | 0 | 0.0 | 4.0 | 0.00 | 0.14 | 0.00 | 72 | 1014.9 |
| 20260905084031 | 56 | 0 | 0.0 | 4.0 | 0.00 | 0.14 | 0.00 | 73 | 1015.0 |
| 20260905083531 | 56 | 0 | 0.0 | 2.0 | 0.00 | 0.14 | 0.00 | 73 | 1015.0 |
| 20260905083106 | 56 | 0 | 0.0 | 2.0 | 0.00 | 0.14 | 0.00 | 73 | 1015.0 |
| 20260905082528 | 56 | 229 | 0.0 | 2.0 | 0.00 | 0.14 | 0.00 | 74 | 1015.0 |
| 20260905082030 | 56 | 0 | 0.0 | 2.0 | 0.00 | 0.14 | 0.00 | 74 | 1015.0 |
| 20260905081549 | 56 | 0 | 0.0 | 2.0 | 0.00 | 0.14 | 0.00 | 74 | 1015.0 |
| 20260905081031 | 56 | 0 | 0.0 | 2.0 | 0.00 | 0.14 | 0.00 | 74 | 1015.0 |
| 20260905080532 | 56 | 0 | 0.0 | 1.0 | 0.00 | 0.14 | 0.00 | 73 | 1015.0 |
| 20260905080048 | 56 | 0 | 0.0 | 1.0 | 0.00 | 0.14 | 0.00 | 73 | 1015.0 |
| 20260905075530 | 56 | 227 | 0.0 | 1.0 | 0.00 | 0.16 | 0.00 | 73 | 1014.9 |
| 20260905075030 | 56 | 0 | 0.0 | 2.0 | 0.00 | 0.16 | 0.00 | 73 | 1015.0 |
| 20260905074549 | 56 | 266 | 0.0 | 2.0 | 0.00 | 0.16 | 0.00 | 72 | 1015.0 |
| 20260905074030 | 56 | 0 | 0.0 | 2.0 | 0.00 | 0.16 | 0.00 | 72 | 1015.0 |
| 20260905073530 | 56 | 0 | 0.0 | 2.0 | 0.00 | 0.16 | 0.00 | 72 | 1015.0 |
| 20260905073045 | 56 | 0 | 0.0 | 2.0 | 0.00 | 0.16 | 0.00 | 72 | 1015.0 |
| 20260905072531 | 56 | 0 | 0.0 | 2.0 | 0.00 | 0.16 | 0.00 | 72 | 1015.0 |
| 20260905072032 | 57 | 0 | 0.0 | 2.0 | 0.00 | 0.16 | 0.00 | 72 | 1015.0 |
| 20260905071551 | 57 | 0 | 0.0 | 1.0 | 0.00 | 0.16 | 0.00 | 72 | 1015.1 |
| 20260905071030 | 57 | 0 | 0.0 | 1.0 | 0.00 | 0.16 | 0.00 | 71 | 1015.0 |
| 20260905070533 | 57 | 0 | 0.0 | 1.0 | 0.00 | 0.16 | 0.00 | 71 | 1015.0 |
| 20260905070053 | 57 | 0 | 0.0 | 2.0 | 0.00 | 0.16 | 0.00 | 71 | 1015.0 |
| 20260905065532 | 57 | 0 | 0.0 | 2.0 | 0.00 | 0.17 | 0.16 | 71 | 1015.0 |
| 20260905065030 | 57 | 0 | 0.0 | 1.0 | 0.00 | 0.17 | 0.16 | 70 | 1015.0 |
| 20260905064607 | 57 | 0 | 0.0 | 1.0 | 0.00 | 0.17 | 0.16 | 69 | 1015.0 |
| 20260905064030 | 57 | 0 | 0.0 | 1.0 | 0.00 | 0.17 | 0.16 | 69 | 1015.0 |
| 20260905063531 | 57 | 0 | 0.0 | 2.0 | 0.00 | 0.17 | 0.16 | 69 | 1015.0 |
| 20260905063044 | 57 | 262 | 0.0 | 2.0 | 0.00 | 0.17 | 0.16 | 70 | 1015.0 |
| 20260905062529 | 57 | 0 | 0.0 | 2.0 | 0.00 | 0.17 | 0.16 | 69 | 1015.0 |
| 20260905062030 | 58 | 0 | 0.0 | 1.0 | 0.00 | 0.17 | 0.16 | 70 | 1015.0 |
| 20260905061558 | 58 | 0 | 0.0 | 1.0 | 0.00 | 0.17 | 0.16 | 69 | 1015.0 |
| 20260905061029 | 58 | 0 | 0.0 | 1.0 | 0.00 | 0.17 | 0.16 | 69 | 1015.0 |
| 20260905060530 | 58 | 0 | 0.0 | 1.0 | 0.00 | 0.17 | 0.16 | 69 | 1015.1 |
| 20260905060050 | 58 | 0 | 0.0 | 1.0 | 0.00 | 0.17 | 0.16 | 69 | 1015.1 |
| 20260905055530 | 59 | 0 | 0.0 | 1.0 | 0.00 | 0.18 | 0.16 | 68 | 1015.1 |
| 20260905055030 | 59 | 0 | 0.0 | 1.0 | 0.00 | 0.18 | 0.16 | 68 | 1015.2 |
| 20260905054634 | 59 | 0 | 0.0 | 1.0 | 0.00 | 0.18 | 0.16 | 66 | 1015.1 |
| 20260905054028 | 59 | 0 | 0.0 | 1.0 | 0.00 | 0.18 | 0.16 | 66 | 1015.1 |
| 20260905053528 | 59 | 0 | 0.0 | 2.0 | 0.00 | 0.18 | 0.16 | 66 | 1015.2 |
| 20260905053046 | 59 | 0 | 0.0 | 2.0 | 0.00 | 0.18 | 0.16 | 65 | 1015.2 |
| 20260905052531 | 60 | 0 | 0.0 | 2.0 | 0.00 | 0.18 | 0.16 | 64 | 1015.2 |
| 20260905052031 | 60 | 0 | 0.0 | 2.0 | 0.00 | 0.18 | 0.16 | 64 | 1015.2 |
| 20260905051553 | 60 | 0 | 0.0 | 2.0 | 0.00 | 0.18 | 0.16 | 64 | 1015.2 |
| 20260905051030 | 60 | 0 | 0.0 | 1.0 | 0.00 | 0.18 | 0.16 | 64 | 1015.3 |
| 20260905050534 | 60 | 0 | 0.0 | 1.0 | 0.00 | 0.18 | 0.16 | 63 | 1015.3 |
| 20260905050049 | 60 | 0 | 0.0 | 1.0 | 0.00 | 0.18 | 0.16 | 63 | 1015.4 |
| 20260905045531 | 60 | 0 | 0.0 | 1.0 | 0.00 | 0.18 | 0.16 | 62 | 1015.3 |
| 20260905045030 | 60 | 0 | 0.0 | 1.0 | 0.00 | 0.18 | 0.16 | 62 | 1015.3 |
| 20260905044603 | 61 | 0 | 0.0 | 0.0 | 0.00 | 0.18 | 0.16 | 61 | 1015.2 |
| 20260905044028 | 61 | 0 | 0.0 | 1.0 | 0.00 | 0.18 | 0.16 | 60 | 1015.2 |
| 20260905043528 | 61 | 0 | 0.0 | 1.0 | 0.00 | 0.18 | 0.16 | 59 | 1015.1 |
| 20260905043044 | 62 | 0 | 0.0 | 2.0 | 0.00 | 0.18 | 0.16 | 59 | 1015.2 |
| 20260905042529 | 62 | 268 | 0.0 | 2.0 | 0.00 | 0.18 | 0.16 | 58 | 1015.0 |
| 20260905042031 | 63 | 248 | 0.0 | 2.0 | 0.00 | 0.18 | 0.16 | 56 | 1015.0 |
| 20260905041552 | 63 | 0 | 0.0 | 3.0 | 0.00 | 0.18 | 0.16 | 55 | 1015.0 |
| 20260905041031 | 63 | 230 | 0.0 | 3.0 | 0.00 | 0.18 | 0.16 | 55 | 1014.9 |
| 20260905040533 | 63 | 232 | 1.0 | 3.0 | 0.00 | 0.18 | 0.16 | 55 | 1014.9 |
| 20260905040104 | 63 | 238 | 0.0 | 2.0 | 0.00 | 0.18 | 0.16 | 55 | 1014.7 |
| 20260905035528 | 63 | 0 | 0.0 | 0.0 | 0.00 | 0.18 | 0.16 | 55 | 1014.8 |
| 20260905035029 | 63 | 0 | 0.0 | 2.0 | 0.00 | 0.18 | 0.16 | 55 | 1014.7 |
| 20260905034602 | 63 | 0 | 0.0 | 2.0 | 0.00 | 0.18 | 0.16 | 54 | 1014.7 |
| 20260905034029 | 63 | 173 | 0.0 | 2.0 | 0.00 | 0.18 | 0.16 | 54 | 1014.6 |
| 20260905033533 | 63 | 173 | 0.0 | 2.0 | 0.00 | 0.18 | 0.16 | 55 | 1014.6 |
| 20260905033102 | 63 | 0 | 0.0 | 1.0 | 0.00 | 0.18 | 0.16 | 56 | 1014.5 |
| 20260905032529 | 64 | 0 | 0.0 | 1.0 | 0.00 | 0.18 | 0.16 | 56 | 1014.5 |
| 20260905032029 | 64 | 0 | 0.0 | 1.0 | 0.00 | 0.18 | 0.16 | 56 | 1014.4 |
| 20260905031600 | 64 | 0 | 0.0 | 2.0 | 0.00 | 0.18 | 0.16 | 57 | 1014.3 |
| 20260905031030 | 64 | 0 | 0.0 | 2.0 | 0.00 | 0.18 | 0.16 | 57 | 1014.3 |
| 20260905030528 | 64 | 0 | 0.0 | 1.0 | 0.00 | 0.18 | 0.16 | 57 | 1014.3 |
| 20260905030045 | 64 | 0 | 0.0 | 0.0 | 0.00 | 0.18 | 0.16 | 56 | 1014.3 |
| 20260905025529 | 64 | 0 | 0.0 | 2.0 | 0.00 | 0.18 | 0.16 | 56 | 1014.2 |
| 20260905025033 | 65 | 0 | 0.0 | 2.0 | 0.00 | 0.18 | 0.16 | 56 | 1014.2 |
| 20260905024558 | 65 | 144 | 0.0 | 2.0 | 0.00 | 0.18 | 0.16 | 55 | 1014.2 |
| 20260905024030 | 65 | 146 | 0.0 | 2.0 | 0.00 | 0.18 | 0.16 | 55 | 1014.1 |
| 20260905023531 | 65 | 153 | 0.0 | 2.0 | 0.00 | 0.18 | 0.16 | 54 | 1014.1 |
| 20260905023051 | 66 | 130 | 0.0 | 2.0 | 0.00 | 0.18 | 0.16 | 54 | 1014.1 |
| 20260905022530 | 66 | 0 | 0.0 | 2.0 | 0.00 | 0.18 | 0.16 | 53 | 1014.0 |
| 20260905022028 | 67 | 0 | 0.0 | 2.0 | 0.00 | 0.18 | 0.16 | 52 | 1014.0 |
| 20260905021549 | 67 | 0 | 0.0 | 2.0 | 0.00 | 0.18 | 0.16 | 51 | 1014.1 |
| 20260905021031 | 67 | 0 | 0.0 | 3.0 | 0.00 | 0.18 | 0.16 | 50 | 1014.1 |
| 20260905020534 | 68 | 146 | 0.0 | 3.0 | 0.00 | 0.18 | 0.16 | 47 | 1014.1 |
| 20260905020051 | 68 | 0 | 0.0 | 2.0 | 0.00 | 0.18 | 0.16 | 47 | 1014.1 |
| 20260905015531 | 68 | 292 | 0.0 | 3.0 | 0.00 | 0.18 | 0.16 | 47 | 1014.1 |
| 20260905015035 | 68 | 337 | 0.0 | 5.0 | 0.00 | 0.18 | 0.16 | 46 | 1014.1 |
| 20260905014552 | 69 | 117 | 0.0 | 5.0 | 0.00 | 0.18 | 0.16 | 46 | 1014.1 |
| 20260905014029 | 69 | 321 | 2.0 | 5.0 | 0.00 | 0.18 | 0.16 | 45 | 1014.1 |
| 20260905013530 | 69 | 9 | 1.0 | 5.0 | 0.00 | 0.18 | 0.16 | 44 | 1014.0 |
| 20260905013046 | 69 | 77 | 0.0 | 4.0 | 0.00 | 0.18 | 0.16 | 46 | 1014.0 |
| 20260905012532 | 70 | 63 | 1.0 | 5.0 | 0.00 | 0.18 | 0.16 | 45 | 1014.0 |
| 20260905012029 | 70 | 0 | 2.0 | 5.0 | 0.00 | 0.18 | 0.16 | 44 | 1013.9 |
| 20260905011542 | 70 | 0 | 2.0 | 5.0 | 0.00 | 0.18 | 0.16 | 44 | 1014.0 |
| 20260905011030 | 70 | 339 | 2.0 | 6.0 | 0.00 | 0.18 | 0.16 | 44 | 1014.0 |
| 20260905010530 | 70 | 0 | 1.0 | 9.0 | 0.00 | 0.18 | 0.16 | 43 | 1014.0 |
| 20260905010100 | 70 | 348 | 2.0 | 9.0 | 0.00 | 0.18 | 0.16 | 42 | 1014.0 |
| 20260905005532 | 71 | 23 | 1.0 | 5.0 | 0.00 | 0.18 | 0.16 | 43 | 1014.0 |
| 20260905005033 | 71 | 15 | 1.0 | 7.0 | 0.00 | 0.18 | 0.16 | 41 | 1013.9 |
| 20260905004550 | 71 | 37 | 3.0 | 7.0 | 0.00 | 0.18 | 0.16 | 40 | 1013.9 |
| 20260905004030 | 71 | 0 | 2.0 | 6.0 | 0.00 | 0.18 | 0.16 | 42 | 1013.9 |
| 20260905003533 | 71 | 333 | 1.0 | 6.0 | 0.00 | 0.18 | 0.16 | 42 | 1014.0 |
| 20260905003047 | 71 | 61 | 1.0 | 5.0 | 0.00 | 0.18 | 0.16 | 43 | 1014.0 |
| 20260905002531 | 71 | 0 | 1.0 | 8.0 | 0.00 | 0.18 | 0.16 | 42 | 1014.0 |
| 20260905002030 | 71 | 317 | 1.0 | 8.0 | 0.00 | 0.18 | 0.16 | 44 | 1014.0 |
| 20260905001554 | 71 | 329 | 2.0 | 8.0 | 0.00 | 0.18 | 0.16 | 46 | 1014.0 |
| 20260905001030 | 72 | 90 | 3.0 | 8.0 | 0.00 | 0.18 | 0.16 | 47 | 1014.1 |
| 20260905000530 | 72 | 315 | 1.0 | 8.0 | 0.00 | 0.18 | 0.16 | 45 | 1014.1 |
| 20260905000050 | 72 | 321 | 1.0 | 10.0 | 0.00 | 0.18 | 0.16 | 43 | 1014.1 |
| 20260904235530 | 73 | 360 | 3.0 | 10.0 | 0.00 | 0.18 | 0.16 | 38 | 1014.1 |
| 20260904235029 | 73 | 15 | 1.0 | 10.0 | 0.00 | 0.18 | 0.16 | 43 | 1014.1 |
| 20260904234550 | 72 | 309 | 1.0 | 11.0 | 0.00 | 0.18 | 0.16 | 44 | 1014.2 |
| 20260904234031 | 71 | 337 | 2.0 | 11.0 | 0.00 | 0.18 | 0.16 | 40 | 1014.2 |
| 20260904233530 | 72 | 0 | 2.0 | 8.0 | 0.00 | 0.18 | 0.16 | 42 | 1014.2 |
| 20260904233047 | 71 | 0 | 1.0 | 7.0 | 0.00 | 0.18 | 0.16 | 47 | 1014.1 |
| 20260904232530 | 71 | 144 | 0.0 | 6.0 | 0.00 | 0.18 | 0.16 | 46 | 1014.2 |
| 20260904232030 | 72 | 154 | 1.0 | 6.0 | 0.00 | 0.18 | 0.16 | 45 | 1014.2 |
| 20260904231600 | 72 | 0 | 2.0 | 6.0 | 0.00 | 0.18 | 0.16 | 47 | 1014.2 |
| 20260904231031 | 72 | 335 | 2.0 | 10.0 | 0.00 | 0.18 | 0.16 | 46 | 1014.3 |
| 20260904230530 | 72 | 338 | 1.0 | 10.0 | 0.00 | 0.18 | 0.16 | 46 | 1014.2 |
| 20260904230051 | 72 | 317 | 3.0 | 11.0 | 0.00 | 0.18 | 0.16 | 47 | 1014.3 |
| 20260904225531 | 72 | 240 | 3.0 | 11.0 | 0.00 | 0.18 | 0.16 | 43 | 1014.3 |